NEW EXCHEQUER-LK MCCLURE (EXC)

Elevation: 879' · MERCED R basin · Operator: Merced Irrigation District

Provisional data, subject to change.
Query executed Friday at 16:42:26   clock

Select a sensor type for a plot of data.
Note: Reservoir Flows are daily averages.

Earlier

Date RES ELE    STORAGE    RES CHG    TOC STO    ABV TOC    OUTFLOW    INFLOW    PPT INC    TEMP MN    TEMP MX    TEMP AV   
 FEET   AF   AF   AF   AF   CFS   CFS   INCHES   DEG F   DEG F   DEG F  
08/20/2014 661.78 177060 -- 1024600 -847540 941 0 0.00 -- -- --
08/21/2014 660.92 175340 -- 1024600 -849260 851 0 0.00 -- -- --
08/22/2014 660.06 173620 -- 1024600 -850980 828 0 0.00 -- -- --
08/23/2014 659.24 172110 -- 1024600 -852490 761 2 0.00 -- -- --
08/24/2014 658.37 170400 -- 1024600 -854200 866 4 0.00 -- -- --
08/25/2014 657.59 168920 -- 1024600 -855680 756 9 0.00 -- -- --
08/26/2014 656.79 167400 -- 1024600 -857200 771 5 0.00 -- -- --
08/27/2014 655.72 165370 -- 1024600 -859230 964 0 0.00 -- -- --
08/28/2014 654.62 163320 -- 1024600 -861280 1024 0 0.00 -- -- --
08/29/2014 653.64 161550 -- 1024600 -863050 852 0 0.00 -- -- --
08/30/2014 652.81 160060 -- 1024600 -864540 757 4 0.00 -- -- --
08/31/2014 651.96 158530 -- 1024600 -866070 791 19 0.00 -- -- --
09/01/2014 651.17 157110 -- 1018900 -861790 735 18 0.00 -- -- --
09/02/2014 650.46 155830 -- 1013100 -857270 622 0 0.00 -- -- --
09/03/2014 649.88 154780 -- 1007400 -852620 549 22 0.00 -- -- --
09/04/2014 649.02 153240 -- 1001600 -848360 752 0 0.00 -- -- --
09/05/2014 648.18 151720 -- 995910 -844190 744 0 0.00 -- -- --
09/06/2014 647.43 150430 -- 990170 -839740 669 17 0.00 -- -- --
09/07/2014 646.66 149120 -- 984440 -835320 651 0 0.00 -- -- --
09/08/2014 645.83 147710 -- 978700 -830990 685 0 0.00 -- -- --
09/09/2014 645.12 146500 -- 972960 -826460 605 0 0.00 -- -- --
09/10/2014 644.56 145550 -- 967220 -821670 494 14 0.00 -- -- --
09/11/2014 643.82 144290 -- 961490 -817200 618 0 0.00 -- -- --
09/12/2014 642.67 142340 -- 955750 -813410 878 0 0.00 -- -- --
09/13/2014 642.33 141760 -- 950010 -- 339 47 0.00 -- -- --
09/14/2014 641.52 140380 -- 944270 -803890 669 0 0.00 -- -- --
09/15/2014 640.66 138920 -- 938530 -799610 705 0 0.00 -- -- --
09/16/2014 639.97 137750 -- 932800 -795050 577 0 0.00 -- -- --
09/17/2014 639.28 136580 -- 927060 -790480 557 0 0.00 -- -- --
09/18/2014 638.57 135410 -- 921320 -785910 552 0 0.00 -- -- --
09/19/2014 -- -- -- -- -- -- -- -- -- -- --

Later | Latest

Warning! This data is preliminary and subject to revision.

Download Data Now Download Data Now | Show EXC Map | Plot EXC Data | 1 Month EXC Data | Real-Time EXC Data | EXC Info